Regional Weather Roundup
Issued by NWS

Home | Current Version | Previous Version | Graphics & Text | Print | Product List | Glossary On
Versions: 1 2 3 4 5 6 7 8 9 10 11 12 13 14 15 16 17 18 19 20 21 22 23 24 25 26 27 28 29 30 31 32 33 34 35 36 37 38 39 40 41 42 43 44 45 46 47 48 49 50
000
ASUS43 KMKX 060700
RWRWI

WISCONSIN REGIONAL WEATHER ROUNDUP
NATIONAL WEATHER SERVICE MILWAUKEE/SULLIVAN WI
200 AM CDT MON JUL 06 2015

NOTE: "FAIR" INDICATES FEW OR NO CLOUDS BELOW 12,000 FEET WITH NO
SIGNIFICANT WEATHER AND/OR OBSTRUCTIONS TO VISIBILITY.

WIZ001-002-006>008-014>016-023>028-060800-
NORTHWEST WISCONSIN

CITY           SKY/WX    TMP DP  RH WIND       PRES   REMARKS
SUPERIOR ARPT  CLOUDY    66  66  99 SW5       29.83F
ASHLAND        RAIN      67  67 100 S6        29.84F FOG
HAYWARD        HVY RAIN  67  65  93 E5        29.89F FOG
SIREN          HVY RAIN  67  66  95 W5        29.88F
CUMBERLAND     TSTM      68  64  88 CALM      29.87F
RICE LAKE      TSTM      70  67  90 SE12      29.86F
CHETEK         HVY RAIN  70  68  95 E6        29.87F
LADYSMITH      CLOUDY    70  65  82 S3        29.91F
EAU CLAIRE     NOT AVBL
MENOMONIE      CLOUDY    72  67  86 CALM      29.86F FOG
NEW RICHMOND   HVY RAIN  71  69  94 E8        29.84F
OSCEOLA        LGT RAIN  72  72 100 SE3       29.84F
$$

WIZ003>005-009-010-017-018-060800-
NORTH CENTRAL WISCONSIN

CITY           SKY/WX    TMP DP  RH WIND       PRES   REMARKS
MANITOWISH WTR CLOUDY    69  65  86 S9        29.90F
ARBOR VITAE    CLOUDY    72  66  82 SW12G20   29.91F
WOODRUFF       CLOUDY    72  66  82 SW12G20   29.91F
RHINELANDER    CLOUDY    69  63  81 SW12G20   29.93F
EAGLE RIVER    CLOUDY    68  61  77 SW7       29.92S
LAND O LAKES   CLOUDY    70  63  77 SW10      29.91S
PHILLIPS       CLOUDY    69  64  84 SW8       29.89F
TOMAHAWK       CLOUDY    66  62  86 CALM      29.94S
MEDFORD        CLOUDY    68  64  87 S9        29.92F
MERRILL        CLOUDY    69  65  85 SW7       29.95S
$$

WIZ029-030-035-036-043>047-060800-
CENTRAL WISCONSIN

CITY           SKY/WX    TMP DP  RH WIND       PRES   REMARKS
WAUSAU         MOCLDY    71  64  78 S7        29.92F
MOSINEE        MOCLDY    66  64  94 S7        29.96S
MARSHFIELD     CLOUDY    68  62  81 S8        29.92F
STEVENS POINT  MOCLDY    68  63  84 S8        29.96R
WAUPACA        PTCLDY    69  67  91 S3        29.96R
WAUTOMA        NOT AVBL
WISC RAPIDS    MOCLDY    69  63  81 S5        29.95F
CAMP DOUGLAS   NOT AVBL
$$

WIZ011>013-019>022-031-037>040-048>050-060800-
NORTHEAST WISCONSIN

CITY           SKY/WX    TMP DP  RH WIND       PRES   REMARKS
ANTIGO         CLOUDY    66  63  89 S9        29.95S
SHAWANO        PTCLDY    70  64  80 S3        29.95R
OCONTO         PTCLDY    67  66  96 CALM      29.95R
STURGEON BAY   PTCLDY    64  57  77 S9        29.99R
GREEN BAY      PTCLDY    67  62  84 S5        29.97R HAZE
MANITOWOC      NOT AVBL
APPLETON       CLEAR     68  61  77 S7        29.97R
CLINTONVILLE   PTCLDY    68  63  83 S6        29.96R
OSHKOSH        CLEAR     66  61  84 S7        29.97R
$$

WIZ032>034-041-042-053>061-060800-
SOUTHWEST WISCONSIN

CITY           SKY/WX    TMP DP  RH WIND       PRES   REMARKS
LA CROSSE      MOCLDY    74  67  78 S13       29.87F
SPARTA         MOCLDY    71  63  76 S7        29.92F
VIROQUA        MOCLDY    69  66  88 S9        29.94F
BOSCOBEL       CLEAR     72  65  78 S5        29.94S HAZE
PRAIRIE DU CHI PTCLDY    73  64  75 E6        29.92R
PLATTEVILLE    CLEAR     68  65  91 S6        29.96R
$$

WIZ056-057-062-063-064-067-068-060800-
SOUTH CENTRAL WISCONSIN

CITY           SKY/WX    TMP DP  RH WIND       PRES   REMARKS
REEDSBURG      PTCLDY    69  64  86 S3        29.96R
BARABOO/DELLS  MOCLDY    68  62  82 SW6       29.96R
LONE ROCK      NOT AVBL
MINERAL POINT  CLEAR     68  63  83 SE6       29.97R
MADISON        MOCLDY    72  63  73 S9        29.98R
MIDDLETON      CLEAR     70  62  77 CALM      29.98R
WATERTOWN      CLEAR     65  65 100 CALM      29.98R
MONROE         CLEAR     66  63  88 S9        29.98R
JANESVILLE     CLEAR     64  63  94 CALM      29.98R
$$

WIZ051-052-058>065-066-070>072-060800-
SOUTHEAST WISCONSIN

CITY           SKY/WX    TMP DP  RH WIND       PRES   REMARKS
MILWAUKEE      PTCLDY    67  59  75 S3        30.00R
WAUKESHA       CLEAR     63  59  88 S3        30.00S
MILWAUKEE/TIMM CLEAR     64  59  82 S3        30.00R
RACINE         CLEAR     66  59  78 SW5       30.02R
BURLINGTON     CLEAR     60  58  95 CALM      29.99R
KENOSHA        CLEAR     64  60  87 SW5       30.01R
FOND DU LAC    CLEAR     69  62  78 SW6       29.99R
SHEBOYGAN      CLEAR     60  58  92 CALM      29.99R FOG
WEST BEND      CLEAR     63  59  88 CALM      30.00R
JUNEAU         CLEAR     65  62  88 S5        30.00R
$$

LSZ147-162-060800-
LAKE SUPERIOR

STATION/POSITION TIME  TEMP    WIND        PRES    WAVE
                       AIR SEA DIR/SP/G            HT/PER
                 (UTC) (F)     (DEG/KT/KT) (MB)    (FT/S)
W MID LAKE BUOY  0550   57 39  300/  4/  6 1009.0R   0
DEVILS ISLAND    0600   64     220/ 10/ 12 1009.2F
PORT WING        0600   67     220/  7/  9 1011.2R
SAXON HARBOR     0600   68     290/  9/ 20 1010.5
$$

LMZ867-665-643>646-060800-
LAKE MICHIGAN

STATION/POSITION TIME  TEMP    WIND        PRES    WAVE
                       AIR SEA DIR/SP/G            HT/PER
                 (UTC) (F)     (DEG/KT/KT) (MB)    (FT/S)
CHAMBERS ISLAND  0600   70     170/  6/ 13 1013.2F
S GREEN BAY BUOY 0500   71 69  180/ 14/ 19 1014.8
N MID LAKE BUOY  0550   58 51  200/ 14/ 16 1013.7F   2/ 4
NORTHPORT PIER   0600   66     160/  7/ 18 1013.2F
SISTER BAY       0614   68     180/ 13/ 17   N/A
KEWAUNEE LAKESHO 0600   63     190/  6/  8 1013.9R
SHEBOYGAN LAKESH 0600   65     190/ 11/ 11 1014.7S
PORT WASHINGTON  0640   64     170/  2/  4 1015.9R
ATWATER BUOY     0600   65 59  180/  6/  8 1016.4R
MILWAUKEE LAKESH 0600   70     190/  7/  7   N/A
KENOSHA   LAKESH 0600   65     170/ 11/ 12 1014.9F
$$

TC  - TEMPERATURE IN CELSIUS
VSB - VISIBILITY IN STATUTE MILES
WCI - WIND CHILL INDEX
HX  - HEAT INDEX



USA.gov is the U.S. government's official web portal to all federal, state and local government web resources and services.